FW0901 Wellfleet MA US current weather conditions

sailwx.info

Wind from 355 at 6 knots gusting 11

Air temperature -0.6° C
Dewpoint -7.1° C

Last reported at 2019-Dec-12 19:01 UTC.
Time now 2019-Dec-12 19:32 UTC

Location: N 41°56' W 070°02'.
View on Google Maps.

See reports from other nearby stations

  
Tides and Currents Weather Stations Pressure Air Temp Water Temp Dewpoint Dewpoint Depression Visibility Wind Speed Wind Dir Waves Ship Positions
date/time (UTC)wind fromknots sea level pressurealtimeterstation pressurevisibilityair tempwater tempwave heightnotes
2019-Dec-12 19:01 355 6 gusting 11 -0.6
2019-Dec-12 18:47 005 5 gusting 13 -0.6
2019-Dec-12 18:31 321 6 gusting 15 -0.6
2019-Dec-12 18:17 018 5 gusting 14 -0.6
2019-Dec-12 18:03 338 6 gusting 11 -1.1
2019-Dec-12 17:47 329 6 gusting 14 -1.1
2019-Dec-12 17:32 301 7 gusting 14 -1.1
2019-Dec-12 17:16 005 7 gusting 15 -1.1
2019-Dec-12 17:01 349 6 gusting 13 -1.1
2019-Dec-12 16:47 355 10 gusting 16 -1.1
2019-Dec-12 16:30 355 5 gusting 13 -1.1
2019-Dec-12 16:15 348 6 gusting 13 -1.1
2019-Dec-12 16:00 344 8 gusting 18 -1.7
2019-Dec-12 15:45 329 7 gusting 15 -1.7
2019-Dec-12 15:31 009 5 gusting 15 -1.7
2019-Dec-12 15:15 328 8 gusting 16 -1.7
2019-Dec-12 15:00 350 6 gusting 14 -1.7
2019-Dec-12 14:45 344 5 gusting 16 -1.7
2019-Dec-12 14:34 350 8 gusting 14 -2.2
2019-Dec-12 14:18 355 9 gusting 19 -2.2
2019-Dec-12 14:01 339 6 gusting 19 -2.2
2019-Dec-12 13:46 005 6 gusting 18 -2.2
2019-Dec-12 13:31 336 7 gusting 20 -2.2
2019-Dec-12 13:16 021 10 gusting 16 -2.8
2019-Dec-12 13:00 360 8 gusting 19 -2.8
2019-Dec-12 12:46 339 11 gusting 20 -2.8
2019-Dec-12 12:30 344 9 gusting 21 -2.8
2019-Dec-12 12:15 319 9 gusting 19 -2.2
2019-Dec-12 12:00 316 10 gusting 17 -2.2
2019-Dec-12 11:45 345 6 gusting 19 -2.2
2019-Dec-12 11:30 333 6 gusting 13 -2.2
2019-Dec-12 11:15 340 6 gusting 15 -2.2
2019-Dec-12 11:00 342 9 gusting 17 -2.2
2019-Dec-12 10:45 011 9 gusting 19 -2.2
2019-Dec-12 10:30 342 8 gusting 18 -2.2
2019-Dec-12 10:18 005 9 gusting 17 -2.2
2019-Dec-12 10:02 347 7 gusting 18 -1.7
2019-Dec-12 09:48 005 9 gusting 17 -1.7
2019-Dec-12 09:32 005 7 gusting 19 -1.7
2019-Dec-12 09:18 355 7 gusting 14 -1.7
2019-Dec-12 09:02 012 6 gusting 15 -1.7
2019-Dec-12 08:46 315 8 gusting 16 -1.7
2019-Dec-12 08:31 355 6 gusting 17 -1.7
2019-Dec-12 08:17 015 11 gusting 19 -1.7
2019-Dec-12 08:02 320 9 gusting 22 -1.7
2019-Dec-12 07:45 350 6 gusting 16 -1.7
2019-Dec-12 07:31 023 8 gusting 19 -1.7
2019-Dec-12 07:01 329 9 gusting 16 -1.1
2019-Dec-12 06:46 355 6 gusting 14 -1.1
2019-Dec-12 06:31 323 7 gusting 21 -1.1
2019-Dec-12 06:15 327 7 gusting 21 -0.6
2019-Dec-12 06:01 336 6 gusting 16 -0.6
2019-Dec-12 05:46 320 8 gusting 23 -0.6
2019-Dec-12 05:15 324 10 gusting 22 -0.0
2019-Dec-12 05:00 321 10 gusting 19 -0.0
2019-Dec-12 04:45 355 12 gusting 22 -0.0
2019-Dec-12 04:30 302 4 gusting 17 -0.0
2019-Dec-12 04:18 281 6 gusting 16 0.6
2019-Dec-12 04:02 296 7 gusting 16 -0.0
2019-Dec-12 03:47 320 6 gusting 15 -0.0
2019-Dec-12 03:32 311 6 gusting 12 -0.0
2019-Dec-12 03:17 299 5 gusting 10 -0.0
2019-Dec-12 03:02 321 3 gusting 13 -0.6
2019-Dec-12 02:46 323 4 gusting 14 -0.6
2019-Dec-12 02:33 292 5 gusting 13 -0.6
2019-Dec-12 02:02 346 2 gusting 11 -0.6
2019-Dec-12 01:46 334 4 gusting 12 -0.6
2019-Dec-12 01:31 294 2 gusting 14 -1.1
2019-Dec-12 01:16 339 4 gusting 11 -1.1
2019-Dec-12 00:46 332 5 gusting 13 -1.1
2019-Dec-12 00:31 318 4 gusting 15 -1.1
2019-Dec-12 00:16 331 4 gusting 13 -1.7
2019-Dec-12 00:01 317 4 gusting 11 -1.7
2019-Dec-11 23:45 350 5 gusting 10 -1.7
2019-Dec-11 23:30 323 6 gusting 13 -1.1
2019-Dec-11 23:15 291 6 gusting 14 -1.1
2019-Dec-11 23:01 309 4 gusting 13 -1.1
2019-Dec-11 22:45 286 5 gusting 12 -1.1
2019-Dec-11 22:30 355 4 gusting 12 -1.1
2019-Dec-11 22:15 290 3 gusting 8 -1.1
2019-Dec-11 22:00 305 0 gusting 3 -1.1
2019-Dec-11 21:45 312 1 gusting 6 -1.1
2019-Dec-11 21:30 311 1 gusting 5 -1.1
2019-Dec-11 21:16 305 0 gusting 3 -1.1
2019-Dec-11 21:00 326 0 gusting 5 -1.1
2019-Dec-11 20:46 313 1 gusting 5 -0.6
2019-Dec-11 20:30 323 3 gusting 6 -0.6
2019-Dec-11 20:15 355 1 gusting 8 -0.6
2019-Dec-11 20:00 324 1 gusting 4 -0.6
2019-Dec-11 19:45 288 0 gusting 6 -0.0
2019-Dec-11 19:30 304 1 gusting 4 -0.0
2019-Dec-11 19:15 314 0 gusting 3 -0.0
2019-Dec-11 19:00 345 1 gusting 3 -0.0
2019-Dec-11 18:33 005 0 gusting 4 -0.0
2019-Dec-11 18:17 355 1 gusting 5 -0.0
2019-Dec-11 18:03 350 1 gusting 6 -0.0
2019-Dec-11 17:46 335 0 gusting 8 -0.6
2019-Dec-11 17:33 315 3 gusting 8 -0.6
2019-Dec-11 17:18 355 2 gusting 8 -0.6
2019-Dec-11 17:02 355 2 gusting 6 -0.6
2019-Dec-11 16:47 005 0 gusting 4 -0.6
2019-Dec-11 16:33 014 1 gusting 4 -0.6
2019-Dec-11 16:17 360 2 gusting 8 -0.6
2019-Dec-11 16:03 302 1 gusting 6 -0.0
2019-Dec-11 15:46 348 0 gusting 5 -0.0
2019-Dec-11 15:31 341 2 gusting 4 -0.0
2019-Dec-11 15:18 331 0 gusting 5 -0.0
2019-Dec-11 15:01 360 2 gusting 5 -0.0
2019-Dec-11 14:47 341 2 gusting 8 -0.0
2019-Dec-11 14:32 355 5 gusting 9 -0.0
2019-Dec-11 14:16 009 4 gusting 10 -0.0
2019-Dec-11 14:02 344 4 gusting 8 -0.6
2019-Dec-11 13:47 331 3 gusting 9 -0.0
2019-Dec-11 13:31 344 4 gusting 11 -0.0
2019-Dec-11 13:17 010 4 gusting 10 -0.0
2019-Dec-11 13:01 355 5 gusting 11 -0.6
2019-Dec-11 12:46 342 6 gusting 13 -0.0
2019-Dec-11 12:31 016 5 gusting 11 -0.0
2019-Dec-11 12:16 344 5 gusting 12 -0.0
2019-Dec-11 12:00 340 4 gusting 13 -0.0
2019-Dec-11 11:47 019 5 gusting 13 -0.0
2019-Dec-11 11:30 009 3 gusting 12 -0.0
2019-Dec-11 11:15 005 7 gusting 14 -0.0
2019-Dec-11 11:00 333 8 gusting 15 0.6
2019-Dec-11 10:45 350 6 gusting 14 0.6
2019-Dec-11 10:30 341 7 gusting 19 0.6
2019-Dec-11 10:15 017 6 gusting 15 1.1
2019-Dec-11 10:00 360 9 gusting 18 1.1
2019-Dec-11 09:45 346 8 gusting 15 1.7
2019-Dec-11 09:32 336 5 gusting 14 1.7
2019-Dec-11 09:17 005 6 gusting 16 2.2
2019-Dec-11 09:02 348 5 gusting 13 2.2
2019-Dec-11 08:47 341 8 gusting 15 2.8
2019-Dec-11 08:32 056 5 gusting 10 3.3
2019-Dec-11 08:17 005 3 gusting 11 3.3
2019-Dec-11 08:01 355 5 gusting 10 3.3
2019-Dec-11 07:47 005 3 gusting 11 3.9
2019-Dec-11 07:31 355 4 gusting 10 3.9
2019-Dec-11 07:16 340 5 gusting 11 3.9
2019-Dec-11 07:01 329 6 gusting 12 3.9
2019-Dec-11 06:47 355 6 gusting 13 3.9
2019-Dec-11 06:31 324 6 gusting 12 3.9
2019-Dec-11 06:16 344 5 gusting 14 4.4
2019-Dec-11 06:01 339 4 gusting 12 4.4
2019-Dec-11 05:46 014 6 gusting 14 5.0
2019-Dec-11 05:31 355 2 gusting 8 5.6
2019-Dec-11 05:15 351 0 gusting 5 5.6
2019-Dec-11 05:00 293 4 gusting 9 5.6
2019-Dec-11 04:46 321 2 gusting 9 5.6
2019-Dec-11 04:30 355 4 gusting 14 5.6
2019-Dec-11 04:15 355 6 gusting 14 6.1
2019-Dec-11 04:00 344 6 gusting 13 6.1
2019-Dec-11 03:45 351 6 gusting 16 6.1
2019-Dec-11 03:30 331 6 gusting 13 6.7
2019-Dec-11 03:19 350 6 gusting 15 7.2
2019-Dec-11 03:02 333 8 gusting 17 7.2
2019-Dec-11 02:49 355 5 gusting 13 7.8
2019-Dec-11 02:33 355 5 gusting 13 7.8
2019-Dec-11 02:17 005 8 gusting 19 9.4
2019-Dec-11 02:02 273 7 gusting 13 10.0
2019-Dec-11 01:46 263 6 gusting 13 10.0
2019-Dec-11 01:31 314 6 gusting 13 10.0
2019-Dec-11 01:17 256 6 gusting 16 10.0
2019-Dec-11 01:03 252 7 gusting 15 10.0
2019-Dec-11 00:47 244 6 gusting 15 10.0
2019-Dec-11 00:31 277 5 gusting 13 10.0
2019-Dec-11 00:16 252 1 gusting 10 10.0
2019-Dec-11 00:01 257 6 gusting 13 10.6
2019-Dec-10 23:46 270 6 gusting 12 10.6
2019-Dec-10 23:31 261 6 gusting 13 10.6
2019-Dec-10 23:16 265 6 gusting 18 11.1
2019-Dec-10 23:02 242 7 gusting 16 11.1
2019-Dec-10 22:45 211 6 gusting 14 11.1
2019-Dec-10 22:30 238 6 gusting 13 11.7
2019-Dec-10 22:16 301 6 gusting 14 11.1
2019-Dec-10 22:02 241 7 gusting 17 11.1
2019-Dec-10 21:46 244 8 gusting 16 11.1
2019-Dec-10 21:31 307 8 gusting 15 11.7
2019-Dec-10 21:15 271 6 gusting 15 11.7
2019-Dec-10 21:00 239 8 gusting 19 11.7
2019-Dec-10 20:46 266 8 gusting 17 11.1
2019-Dec-10 20:30 276 7 gusting 16 11.1
2019-Dec-10 20:16 312 8 gusting 14 11.1
2019-Dec-10 20:00 250 6 gusting 14 11.1
2019-Dec-10 19:46 246 8 gusting 18 11.7
2019-Dec-10 19:30 267 11 gusting 20 11.7
2019-Dec-10 19:16 280 7 gusting 18 11.1
2019-Dec-10 19:00 184 6 gusting 14 11.1